Weather Roundup
Issued by NWS Chicago, IL

Home | Current Version | Previous Version | Graphics & Text | Print | Product List | Glossary On
Versions: 1 2 3 4 5 6 7 8 9 10 11 12 13 14 15 16 17 18 19 20 21 22 23 24 25 26 27 28 29 30 31 32 33 34 35 36 37 38 39 40 41 42 43 44 45 46 47 48 49 50
000
NZUS59 KLOT 261408
HRRLOT

CHICAGO AREA WEATHER ROUNDUP
NATIONAL WEATHER SERVICE CHICAGO/ROMEOVILLE IL
900 AM CDT MON SEP 26 2016

NOTE: "FAIR" INDICATES FEW OR NO CLOUDS BELOW 12,000 FEET WITH NO
SIGNIFICANT WEATHER AND/OR OBSTRUCTIONS TO VISIBILITY.

* THESE STATIONS ARE NOT UNDER NWS QUALITY CONTROL. THEY ALSO MAY NOT
  REPORT WEATHER SUCH AS PRECIPITATION OR FOG.

ILZ005-006-012>014-019>023-261500-
NORTHEAST ILLINOIS

CITY           SKY/WX    TMP DP  RH WIND       PRES   REMARKS
OHARE          MOSUNNY   60  47  61 W14       29.99S
MIDWAY         CLOUDY    61  48  62 SW12      30.00S
AURORA         SUNNY     60  48  64 W14G21    30.02F
LANSING*       CLOUDY    59  53  78 W12       30.02S
JOLIET*        MOSUNNY   62  51  66 W8        30.04R
WAUKEGAN       SUNNY     59  47  64 VRB7G20   29.96S
DUPAGE AIRPORT SUNNY     59  47  64 W13       30.01S
WHEELING       SUNNY     60  47  61 W6G16     29.99F
KANKAKEE*      CLOUDY    58  52  81 W9        30.06S
MORRIS*        SUNNY     61  47  59 W15       30.03S
LEWIS AIRPORT* CLOUDY    60  53  77 W12G17    30.03S
NORTHERLY ISL    N/A     61  46  57 W6          N/A
$$

WIZ051-052-058>065-066-070>072-261500-
SOUTHEAST WISCONSIN

CITY           SKY/WX    TMP DP  RH WIND       PRES   REMARKS
MILWAUKEE      MOSUNNY   60  45  57 W14G25    29.93F
KENOSHA*       SUNNY     58  47  66 W15G22    29.95F
RACINE*        SUNNY     59  47  64 W13       29.95F
BURLINGTON     SUNNY     56  45  65 W10G18    29.96S
WAUKESHA       SUNNY     55  45  67 W17G23    29.94F
WEST BEND      MOSUNNY   55  45  67 W16G25    29.90S
$$

INZ001>003-010>013-019-020-261500-
NORTHWEST INDIANA

CITY           SKY/WX    TMP DP  RH WIND       PRES   REMARKS
GARY*          PTSUNNY   61  52  72 W12       30.02S
MICHIGAN CITY* NOT AVBL
RENSSELAER*    NOT AVBL
VALPARAISO     CLOUDY    58  53  84 W12       30.03R
$$

LMZ740>746-261500-
SOUTHERN LAKE MICHIGAN

STATION/POSITION TIME  SKY/WX   TEMP WIND        PRES    VSBY
                                AIR  DIR/SP/G
                 (UTC)          (F)  (DEG/KT/KT) (MB)    (MI)
HARRISON CRIB    1300            61  260/ 16/ 18   N/A
BURNHAM HARBOR   1400            61  280/ 10/ 12   N/A
CALUMET HARBOR   1300            60  240/  5/ 10 1015.7R
BURNS HARBOR     1301            62  260/ 17/ 21 1016.3R
MICHIGAN CITY    1300            62  250/ 22/ 26   N/A
$$

ABBREVIATIONS USED IN REMARKS
   TC - TEMPERATURE IN CELSIUS
  WCI - WIND CHILL INDEX
   HX - HEAT INDEX
  VSB - VISIBILITY
$$



USA.gov is the U.S. government's official web portal to all federal, state and local government web resources and services.